EXPRESS AMU-3

Last updated on Tue Sep 22 2026 00:03:15 GMT+0000 (Coordinated Universal Time)

1 50002U 21123B 26263.71626935 -.00000339 00000+0 00000+0 0 9998 2 50002 0.0361 250.8608 0007518 209.0470 260.1884 1.00406525 7998
UTC large
Height (km)
Speed (km/s)
/
Latitude / Longitude
Inclination (degrees)
Orbital Period (minutes)
Azimuth
Elevation
Range (km)
Doppler Factor

Next 0 passes for location: London (51.5072 / 0.1276)

No passes found over London.
EXPRESS AMU-3